Regional Weather Roundup
Issued by NWS

Home | Current Version | Previous Version | Text Only | Print | Product List | Glossary Off
Versions: 1 2 3 4 5 6 7 8 9 10 11 12 13 14 15 16 17 18 19 20 21 22 23 24 25 26 27 28 29 30 31 32 33 34 35 36 37 38 39 40 41 42 43 44 45 46 47 48 49 50

000
ASUS43 KMKX 300211
RWRWI

WISCONSIN REGIONAL WEATHER ROUNDUP
NATIONAL WEATHER SERVICE MILWAUKEE/SULLIVAN WI
900 PM CDT WED JUL 29 2015

NOTE: "FAIR" INDICATES FEW OR NO CLOUDS BELOW 12,000 FEET WITH NO
SIGNIFICANT WEATHER AND/OR OBSTRUCTIONS TO VISIBILITY.

WIZ001-002-006>008-014>016-023>028-300300-
NORTHWEST WISCONSIN

CITY           SKY/WX    TMP DP  RH WIND       PRES   REMARKS
SUPERIOR ARPT  PTCLDY    70  54  56 W9        29.82R
ASHLAND        PTCLDY    72  55  55 W8        29.82R
HAYWARD        CLEAR     73  53  49 W5        29.88R
SIREN          PTCLDY    71  55  56 W5        29.90R
CUMBERLAND     CLEAR     68  54  60 W6        29.92R
RICE LAKE      CLEAR     70  54  57 SW6       29.92S
CHETEK         CLEAR     72  55  55 SW6       29.91S
LADYSMITH      CLEAR     71  55  56 SW7       29.92R
EAU CLAIRE     CLEAR     71  56  58 SW7       29.92R
MENOMONIE      CLEAR     73  55  52 W7        29.93R
NEW RICHMOND   PTCLDY    70  55  59 W8        29.94R
OSCEOLA        CLEAR     73  55  54 W10       29.95R
$$

WIZ003>005-009-010-017-018-300300-
NORTH CENTRAL WISCONSIN

CITY           SKY/WX    TMP DP  RH WIND       PRES   REMARKS
MANITOWISH WTR CLOUDY    69  56  62 W6        29.86S
ARBOR VITAE    MOCLDY    72  56  56 W9        29.87S
WOODRUFF       MOCLDY    72  56  56 W9        29.87S
RHINELANDER    PTCLDY    71  53  52 W10       29.89S
EAGLE RIVER    LGT RAIN  70  53  53 W12       29.86S
LAND O LAKES   CLOUDY    71  54  54 W8        29.86S
PHILLIPS       PTCLDY    70  55  60 SW6       29.89R
TOMAHAWK       CLEAR     69  53  57 W6        29.90S
MEDFORD        CLEAR     69  55  62 W5        29.93R
MERRILL        NOT AVBL
$$

WIZ029-030-035-036-043>047-300300-
CENTRAL WISCONSIN

CITY           SKY/WX    TMP DP  RH WIND       PRES   REMARKS
WAUSAU         CLEAR     73  54  51 W13       29.90R
MOSINEE        PTCLDY    70  55  60 W8        29.92S
MARSHFIELD     PTCLDY    70  53  54 W8        29.93S
STEVENS POINT  CLEAR     72  54  53 W7        29.93S
WAUPACA        CLEAR     74  54  49 SW5       29.92S
WAUTOMA        CLEAR     74  53  47 SW6       29.95R
WISC RAPIDS    CLEAR     73  52  47 W6        29.95R
CAMP DOUGLAS   PTCLDY    70  55  60 W8        29.95S
$$

WIZ011>013-019>022-031-037>040-048>050-300300-
NORTHEAST WISCONSIN

CITY           SKY/WX    TMP DP  RH WIND       PRES   REMARKS
ANTIGO         CLEAR     68  54  60 W8        29.91S
SHAWANO        CLEAR     76  53  44 SW6       29.89S
OCONTO         CLEAR     72  56  57 SW6       29.86S
STURGEON BAY   CLEAR     73  55  53 SW6       29.89S
GREEN BAY      PTCLDY    71  56  58 SW6       29.89R
MANITOWOC      PTCLDY    76  53  44 MISG      29.91R
APPLETON       PTCLDY    73  50  43 W8        29.92R
CLINTONVILLE   PTCLDY    73  52  46 SW6       29.89S
OSHKOSH        CLEAR     74  54  49 W6        29.92R
$$

WIZ032>034-041-042-053>061-300300-
SOUTHWEST WISCONSIN

CITY           SKY/WX    TMP DP  RH WIND       PRES   REMARKS
LA CROSSE      CLEAR     76  54  46 W10       29.96S
SPARTA         CLEAR     73  52  47 SW5       29.97S
VIROQUA        CLEAR     69  55  60 W7        30.01R
BOSCOBEL       CLEAR     73  55  53 SW6       30.00R
PRAIRIE DU CHI CLEAR     74  53  48 W5        30.01R
PLATTEVILLE    CLEAR     69  56  63 W6        30.03R
$$

WIZ056-057-062-063-064-067-068-300300-
SOUTH CENTRAL WISCONSIN

CITY           SKY/WX    TMP DP  RH WIND       PRES   REMARKS
REEDSBURG      CLEAR     72  55  53 W6        29.97R
BARABOO/DELLS  CLEAR     72  51  47 W5        29.98R
LONE ROCK      CLEAR     72  54  53 W3        29.99R
MINERAL POINT  CLEAR     70  52  52 W6        30.03R
MADISON        CLEAR     75  52  44 VRB3      29.98R
MIDDLETON      CLEAR     71  51  48 W5        30.00R
WATERTOWN      CLEAR     71  56  59 W6        29.97R
MONROE         CLEAR     72  54  53 W13       30.02R
JANESVILLE     CLEAR     73  54  49 W10       29.99R
$$

WIZ051-052-058>065-066-070>072-300300-
SOUTHEAST WISCONSIN

CITY           SKY/WX    TMP DP  RH WIND       PRES   REMARKS
MILWAUKEE      PTCLDY    79  51  37 W9        29.95R
WAUKESHA       CLEAR     72  52  49 SW8       29.98R
MILWAUKEE/TIMM NOT AVBL
RACINE         CLEAR     75  53  46 W8        29.98R
BURLINGTON     CLEAR     68  53  59 W5        29.98R
KENOSHA        CLEAR     69  55  60 W8        29.98R
FOND DU LAC    CLEAR     74  54  49 W6        29.94R
SHEBOYGAN      PTCLDY    72  55  55 W8        29.93R
WEST BEND      CLEAR     73  52  46 W6        29.95R
JUNEAU         CLEAR     71  54  54 W8        29.97R
$$

LSZ147-162-300300-
LAKE SUPERIOR

STATION/POSITION TIME  TEMP    WIND        PRES    WAVE
                       AIR SEA DIR/SP/G            HT/PER
                 (UTC) (F)     (DEG/KT/KT) (MB)    (FT/S)
W MID LAKE BUOY  0150   60 55  210/ 12/ 14 1006.5F   3/ 6
DEVILS ISLAND    0200   68     240/ 20/ 24 1007.7R
PORT WING        0140   72     250/ 12/ 17 1009.5R
SAXON HARBOR     0140   74                 1008.8S
$$

LMZ867-665-643>646-300300-
LAKE MICHIGAN

STATION/POSITION TIME  TEMP    WIND        PRES    WAVE
                       AIR SEA DIR/SP/G            HT/PER
                 (UTC) (F)     (DEG/KT/KT) (MB)    (FT/S)
CHAMBERS ISLAND  0100   75     220/  5/ 10 1010.2S
S GREEN BAY BUOY 0200   71 67  240/  8/ 10 1012.9R
N MID LAKE BUOY  0150   72 70  260/  8/  8 1009.7R   2/ 5
NORTHPORT PIER   0100   78     280/  4/ 10 1010.2R
SISTER BAY       0144   76     310/ 11/ 13   N/A
ALGOMA LAKESHORE 0112          280/  3/  6   N/A
KEWAUNEE LAKESHO 0100   79                   N/A
SHEBOYGAN LAKESH 0200   78     240/  6/  7 1013.2R
PORT WASHINGTON  0100   81     250/  5/  9 1013.2S
ATWATER BUOY     0200   75     240/  4/  6 1015.7R
MILWAUKEE LAKESH 0100   81     270/ 12/ 15   N/A
KENOSHA   LAKESH 0200   79     260/ 11/ 15 1014.2R
$$

TC  - TEMPERATURE IN CELSIUS
VSB - VISIBILITY IN STATUTE MILES
WCI - WIND CHILL INDEX
HX  - HEAT INDEX



USA.gov is the U.S. government's official web portal to all federal, state and local government web resources and services.